contact:dominique.lefevre@mio.osupytheas.fr, maurice.libes@osupytheas.fr, didier.mallarino@osupytheas.fr
Project:EMSO http://www.emso-fr.org/EMSO-France
Depth: 2436.0 m
Title:EMSO Ligure Ouest : Data MII capteur MICROCAT
DateTime_Computer,Latitude,Longitude,Temperature,Conductivity,Pressure,DateTime_Instrument
DateTime_Computer,Latitude,Longitude,degC,S m-1,dbar,DateTime_Instrument
2021-02-03T00:00:53Z,42.805,6.029,13.2986,4.59990,2470.227,2021-2-03T02:01:55Z
2021-02-03T00:03:56Z,42.805,6.029,13.2984,4.59988,2470.25,2021-2-03T02:04:59Z
2021-02-03T00:06:59Z,42.805,6.029,13.2983,4.59987,2470.227,2021-2-03T02:08:02Z
2021-02-03T00:10:02Z,42.805,6.029,13.2985,4.59987,2470.25,2021-2-03T02:11:05Z
2021-02-03T00:13:05Z,42.805,6.029,13.2986,4.59991,2470.25,2021-2-03T02:14:08Z
2021-02-03T00:16:08Z,42.805,6.029,13.2983,4.59989,2470.227,2021-2-03T02:17:11Z
2021-02-03T00:19:11Z,42.805,6.029,13.2990,4.59987,2470.24,2021-2-03T02:20:14Z
2021-02-03T00:22:14Z,42.805,6.029,13.2985,4.59988,2470.287,2021-2-03T02:23:17Z
2021-02-03T00:25:17Z,42.805,6.029,13.2989,4.59988,2470.227,2021-2-03T02:26:20Z
2021-02-03T00:28:21Z,42.805,6.029,13.2990,4.59987,2470.227,2021-2-03T02:29:23Z
2021-02-03T00:31:24Z,42.805,6.029,13.2986,4.59990,2470.25,2021-2-03T02:32:27Z
2021-02-03T00:34:27Z,42.805,6.029,13.2983,4.59992,2470.25,2021-2-03T02:35:30Z
2021-02-03T00:37:30Z,42.805,6.029,13.2983,4.59988,2470.227,2021-2-03T02:38:33Z
2021-02-03T00:40:33Z,42.805,6.029,13.2985,4.59988,2470.227,2021-2-03T02:41:36Z
2021-02-03T00:43:36Z,42.805,6.029,13.2986,4.59989,2470.227,2021-2-03T02:44:39Z
2021-02-03T00:46:39Z,42.805,6.029,13.2991,4.59989,2470.24,2021-2-03T02:47:42Z
2021-02-03T00:49:42Z,42.805,6.029,13.2982,4.59987,2470.264,2021-2-03T02:50:45Z
2021-02-03T00:52:46Z,42.805,6.029,13.2983,4.59988,2470.227,2021-2-03T02:53:48Z
2021-02-03T00:55:49Z,42.805,6.029,13.2980,4.59988,2470.227,2021-2-03T02:56:52Z
2021-02-03T00:58:52Z,42.805,6.029,13.2986,4.59991,2470.203,2021-2-03T02:59:55Z
2021-02-03T01:01:55Z,42.805,6.029,13.2987,4.59991,2470.227,2021-2-03T03:02:58Z
2021-02-03T01:04:58Z,42.805,6.029,13.2988,4.59988,2470.227,2021-2-03T03:06:01Z
2021-02-03T01:08:01Z,42.805,6.029,13.2990,4.59988,2470.217,2021-2-03T03:09:04Z
2021-02-03T01:11:04Z,42.805,6.029,13.2986,4.59989,2470.227,2021-2-03T03:12:07Z
2021-02-03T01:14:07Z,42.805,6.029,13.2989,4.59990,2470.227,2021-2-03T03:15:10Z
2021-02-03T01:17:11Z,42.805,6.029,13.2986,4.59990,2470.25,2021-2-03T03:18:13Z
2021-02-03T01:20:14Z,42.805,6.029,13.2984,4.59989,2470.217,2021-2-03T03:21:17Z
2021-02-03T01:23:17Z,42.805,6.029,13.2985,4.59991,2470.227,2021-2-03T03:24:20Z
2021-02-03T01:26:20Z,42.805,6.029,13.2990,4.59989,2470.227,2021-2-03T03:27:23Z
2021-02-03T01:29:23Z,42.805,6.029,13.2987,4.59994,2470.227,2021-2-03T03:30:26Z
2021-02-03T01:32:26Z,42.805,6.029,13.2988,4.59989,2470.24,2021-2-03T03:33:29Z
2021-02-03T01:35:29Z,42.805,6.029,13.2986,4.59991,2470.203,2021-2-03T03:36:32Z
2021-02-03T01:38:32Z,42.805,6.029,13.2984,4.59990,2470.24,2021-2-03T03:39:35Z
2021-02-03T01:41:35Z,42.805,6.029,13.2988,4.59989,2470.217,2021-2-03T03:42:38Z
2021-02-03T01:44:39Z,42.805,6.029,13.2989,4.59991,2470.217,2021-2-03T03:45:41Z
2021-02-03T01:47:42Z,42.805,6.029,13.2986,4.59991,2470.194,2021-2-03T03:48:45Z
2021-02-03T01:50:45Z,42.805,6.029,13.2986,4.59989,2470.203,2021-2-03T03:51:48Z
2021-02-03T01:53:48Z,42.805,6.029,13.2985,4.59991,2470.217,2021-2-03T03:54:51Z
2021-02-03T01:56:51Z,42.805,6.029,13.2988,4.59991,2470.217,2021-2-03T03:57:54Z
2021-02-03T01:59:54Z,42.805,6.029,13.2990,4.59990,2470.18,2021-2-03T04:00:57Z
2021-02-03T02:02:57Z,42.805,6.029,13.2985,4.59991,2470.25,2021-2-03T04:04:00Z
2021-02-03T02:06:00Z,42.805,6.029,13.2983,4.59990,2470.203,2021-2-03T04:07:03Z
2021-02-03T02:09:04Z,42.805,6.029,13.2985,4.59988,2470.217,2021-2-03T04:10:06Z
2021-02-03T02:12:07Z,42.805,6.029,13.2988,4.59990,2470.18,2021-2-03T04:13:10Z
2021-02-03T02:15:10Z,42.805,6.029,13.2987,4.59991,2470.18,2021-2-03T04:16:13Z
2021-02-03T02:18:13Z,42.805,6.029,13.2985,4.59988,2470.203,2021-2-03T04:19:16Z
2021-02-03T02:21:16Z,42.805,6.029,13.2990,4.59989,2470.203,2021-2-03T04:22:19Z
2021-02-03T02:24:19Z,42.805,6.029,13.2990,4.59990,2470.18,2021-2-03T04:25:22Z
2021-02-03T02:27:22Z,42.805,6.029,13.2982,4.59990,2470.156,2021-2-03T04:28:25Z
2021-02-03T02:30:25Z,42.805,6.029,13.2986,4.59991,2470.18,2021-2-03T04:31:28Z
2021-02-03T02:33:28Z,42.805,6.029,13.2985,4.59989,2470.203,2021-2-03T04:34:31Z
2021-02-03T02:36:32Z,42.805,6.029,13.2983,4.59989,2470.171,2021-2-03T04:37:34Z
2021-02-03T02:39:35Z,42.805,6.029,13.2985,4.59990,2470.171,2021-2-03T04:40:38Z
2021-02-03T02:42:38Z,42.805,6.029,13.2983,4.59995,2470.18,2021-2-03T04:43:41Z
2021-02-03T02:45:41Z,42.805,6.029,13.2986,4.59995,2470.194,2021-2-03T04:46:44Z
2021-02-03T02:48:44Z,42.805,6.029,13.2985,4.59991,2470.18,2021-2-03T04:49:47Z
2021-02-03T02:51:47Z,42.805,6.029,13.2986,4.59991,2470.18,2021-2-03T04:52:50Z
2021-02-03T02:54:50Z,42.805,6.029,13.2987,4.59988,2470.156,2021-2-03T04:55:53Z
2021-02-03T02:57:53Z,42.805,6.029,13.2989,4.59990,2470.203,2021-2-03T04:58:56Z
2021-02-03T03:00:56Z,42.805,6.029,13.2986,4.59988,2470.171,2021-2-03T05:01:59Z
2021-02-03T03:04:00Z,42.805,6.029,13.2986,4.59991,2470.18,2021-2-03T05:05:03Z
2021-02-03T03:07:03Z,42.805,6.029,13.2986,4.59989,2470.156,2021-2-03T05:08:06Z
2021-02-03T03:10:06Z,42.805,6.029,13.2987,4.59989,2470.171,2021-2-03T05:11:09Z
2021-02-03T03:13:09Z,42.805,6.029,13.2985,4.59989,2470.18,2021-2-03T05:14:12Z
2021-02-03T03:16:12Z,42.805,6.029,13.2984,4.59988,2470.194,2021-2-03T05:17:15Z
2021-02-03T03:19:15Z,42.805,6.029,13.2981,4.59989,2470.133,2021-2-03T05:20:18Z
2021-02-03T03:22:18Z,42.805,6.029,13.2988,4.59988,2470.156,2021-2-03T05:23:21Z
2021-02-03T03:25:21Z,42.805,6.029,13.2986,4.59988,2470.133,2021-2-03T05:26:24Z
2021-02-03T03:28:25Z,42.805,6.029,13.2983,4.59990,2470.156,2021-2-03T05:29:27Z
2021-02-03T03:31:28Z,42.805,6.029,13.2986,4.59993,2470.119,2021-2-03T05:32:31Z
2021-02-03T03:34:31Z,42.805,6.029,13.2984,4.59991,2470.156,2021-2-03T05:35:34Z
2021-02-03T03:37:34Z,42.805,6.029,13.2986,4.59989,2470.156,2021-2-03T05:38:37Z
2021-02-03T03:40:37Z,42.805,6.029,13.2983,4.59989,2470.156,2021-2-03T05:41:40Z
2021-02-03T03:43:40Z,42.805,6.029,13.2983,4.59989,2470.133,2021-2-03T05:44:43Z
2021-02-03T03:46:43Z,42.805,6.029,13.2987,4.59992,2470.156,2021-2-03T05:47:46Z
2021-02-03T03:49:46Z,42.805,6.029,13.2987,4.59991,2470.119,2021-2-03T05:50:49Z
2021-02-03T03:52:49Z,42.805,6.029,13.2984,4.59990,2470.156,2021-2-03T05:53:52Z
2021-02-03T03:55:53Z,42.805,6.029,13.2987,4.59991,2470.18,2021-2-03T05:56:56Z
2021-02-03T03:58:56Z,42.805,6.029,13.2983,4.59991,2470.11,2021-2-03T05:59:59Z
2021-02-03T04:01:59Z,42.805,6.029,13.2986,4.59990,2470.147,2021-2-03T06:03:02Z
2021-02-03T04:05:02Z,42.805,6.029,13.2986,4.59990,2470.171,2021-2-03T06:06:05Z
2021-02-03T04:08:05Z,42.805,6.029,13.2988,4.59988,2470.156,2021-2-03T06:09:08Z
2021-02-03T04:11:08Z,42.805,6.029,13.2987,4.59999,2470.171,2021-2-03T06:12:11Z
2021-02-03T04:14:11Z,42.805,6.029,13.2986,4.59993,2470.133,2021-2-03T06:15:14Z
2021-02-03T04:17:14Z,42.805,6.029,13.2983,4.59990,2470.156,2021-2-03T06:18:17Z
2021-02-03T04:20:17Z,42.805,6.029,13.2989,4.59989,2470.171,2021-2-03T06:21:20Z
2021-02-03T04:23:21Z,42.805,6.029,13.2981,4.59990,2470.171,2021-2-03T06:24:24Z
2021-02-03T04:26:24Z,42.805,6.029,13.2990,4.59989,2470.133,2021-2-03T06:27:27Z
2021-02-03T04:29:27Z,42.805,6.029,13.2986,4.59989,2470.133,2021-2-03T06:30:30Z
2021-02-03T04:32:30Z,42.805,6.029,13.2985,4.59989,2470.133,2021-2-03T06:33:33Z
2021-02-03T04:35:33Z,42.805,6.029,13.2984,4.59989,2470.171,2021-2-03T06:36:36Z
2021-02-03T04:38:36Z,42.805,6.029,13.2983,4.59989,2470.18,2021-2-03T06:39:39Z
2021-02-03T04:41:39Z,42.805,6.029,13.2985,4.59989,2470.133,2021-2-03T06:42:42Z
2021-02-03T04:44:42Z,42.805,6.029,13.2986,4.59989,2470.11,2021-2-03T06:45:45Z
2021-02-03T04:47:46Z,42.805,6.029,13.2983,4.59993,2470.11,2021-2-03T06:48:49Z
2021-02-03T04:50:49Z,42.805,6.029,13.2987,4.59992,2470.11,2021-2-03T06:51:52Z
2021-02-03T04:53:52Z,42.805,6.029,13.2983,4.59991,2470.11,2021-2-03T06:54:55Z
2021-02-03T04:56:55Z,42.805,6.029,13.2989,4.59990,2470.11,2021-2-03T06:57:58Z
2021-02-03T04:59:58Z,42.805,6.029,13.2987,4.59989,2470.124,2021-2-03T07:01:01Z
2021-02-03T05:03:01Z,42.805,6.029,13.2987,4.59989,2470.156,2021-2-03T07:04:04Z
2021-02-03T05:06:04Z,42.805,6.029,13.2987,4.59989,2470.087,2021-2-03T07:07:07Z
2021-02-03T05:09:07Z,42.805,6.029,13.2985,4.59989,2470.11,2021-2-03T07:10:10Z
2021-02-03T05:12:11Z,42.805,6.029,13.2986,4.59989,2470.147,2021-2-03T07:13:13Z
2021-02-03T05:15:14Z,42.805,6.029,13.2985,4.59990,2470.133,2021-2-03T07:16:17Z
2021-02-03T05:18:17Z,42.805,6.029,13.2986,4.59990,2470.156,2021-2-03T07:19:20Z
2021-02-03T05:21:20Z,42.805,6.029,13.2985,4.59988,2470.124,2021-2-03T07:22:23Z
2021-02-03T05:24:23Z,42.805,6.029,13.2983,4.59988,2470.133,2021-2-03T07:25:26Z
2021-02-03T05:27:26Z,42.805,6.029,13.2986,4.59988,2470.133,2021-2-03T07:28:29Z
2021-02-03T05:30:29Z,42.805,6.029,13.2984,4.59992,2470.124,2021-2-03T07:31:32Z
2021-02-03T05:33:32Z,42.805,6.029,13.2985,4.59990,2470.11,2021-2-03T07:34:35Z
2021-02-03T05:36:35Z,42.805,6.029,13.2987,4.59989,2470.124,2021-2-03T07:37:38Z
2021-02-03T05:39:39Z,42.805,6.029,13.2987,4.59989,2470.11,2021-2-03T07:40:42Z
2021-02-03T05:42:42Z,42.805,6.029,13.2986,4.59988,2470.087,2021-2-03T07:43:45Z
2021-02-03T05:45:45Z,42.805,6.029,13.2986,4.59991,2470.11,2021-2-03T07:46:48Z
2021-02-03T05:48:48Z,42.805,6.029,13.2986,4.59989,2470.133,2021-2-03T07:49:51Z
2021-02-03T05:51:51Z,42.805,6.029,13.2983,4.59988,2470.124,2021-2-03T07:52:54Z
2021-02-03T05:54:54Z,42.805,6.029,13.2982,4.59991,2470.11,2021-2-03T07:55:57Z
2021-02-03T05:57:57Z,42.805,6.029,13.2984,4.59990,2470.1,2021-2-03T07:59:00Z
2021-02-03T06:01:00Z,42.805,6.029,13.2986,4.59991,2470.133,2021-2-03T08:02:03Z
2021-02-03T06:04:04Z,42.805,6.029,13.2986,4.59990,2470.124,2021-2-03T08:05:06Z
2021-02-03T06:07:07Z,42.805,6.029,13.2985,4.59987,2470.133,2021-2-03T08:08:10Z
2021-02-03T06:10:10Z,42.805,6.029,13.2992,4.59987,2470.133,2021-2-03T08:11:13Z
2021-02-03T06:13:13Z,42.805,6.029,13.2982,4.59992,2470.096,2021-2-03T08:14:16Z
2021-02-03T06:16:16Z,42.805,6.029,13.2986,4.59990,2470.11,2021-2-03T08:17:19Z
2021-02-03T06:19:19Z,42.805,6.029,13.2986,4.59986,2470.133,2021-2-03T08:20:22Z
2021-02-03T06:22:22Z,42.805,6.029,13.2984,4.59987,2470.11,2021-2-03T08:23:25Z
2021-02-03T06:25:25Z,42.805,6.029,13.2987,4.59989,2470.133,2021-2-03T08:26:28Z
2021-02-03T06:28:29Z,42.805,6.029,13.2982,4.59987,2470.11,2021-2-03T08:29:31Z
2021-02-03T06:31:32Z,42.805,6.029,13.2983,4.59987,2470.133,2021-2-03T08:32:35Z
2021-02-03T06:34:35Z,42.805,6.029,13.2990,4.59987,2470.11,2021-2-03T08:35:38Z
2021-02-03T06:37:38Z,42.805,6.029,13.2983,4.59987,2470.133,2021-2-03T08:38:41Z
2021-02-03T06:40:41Z,42.805,6.029,13.2984,4.59988,2470.156,2021-2-03T08:41:44Z
2021-02-03T06:43:44Z,42.805,6.029,13.2982,4.59987,2470.171,2021-2-03T08:44:47Z
2021-02-03T06:46:47Z,42.805,6.029,13.2983,4.59989,2470.133,2021-2-03T08:47:50Z
2021-02-03T06:49:50Z,42.805,6.029,13.2984,4.59988,2470.147,2021-2-03T08:50:53Z
2021-02-03T06:52:53Z,42.805,6.029,13.2985,4.59987,2470.18,2021-2-03T08:53:56Z
2021-02-03T06:55:57Z,42.805,6.029,13.2982,4.59988,2470.133,2021-2-03T08:57:00Z
2021-02-03T06:59:00Z,42.805,6.029,13.2985,4.59991,2470.147,2021-2-03T09:00:03Z
2021-02-03T07:02:03Z,42.805,6.029,13.2983,4.59990,2470.133,2021-2-03T09:03:06Z
2021-02-03T07:05:06Z,42.805,6.029,13.2984,4.59988,2470.147,2021-2-03T09:06:09Z
2021-02-03T07:08:09Z,42.805,6.029,13.2988,4.59989,2470.194,2021-2-03T09:09:12Z
2021-02-03T07:11:12Z,42.805,6.029,13.2982,4.59988,2470.133,2021-2-03T09:12:15Z
2021-02-03T07:14:15Z,42.805,6.029,13.2979,4.59989,2470.194,2021-2-03T09:15:18Z
2021-02-03T07:17:18Z,42.805,6.029,13.2982,4.59989,2470.171,2021-2-03T09:18:21Z
2021-02-03T07:20:22Z,42.805,6.029,13.2986,4.59992,2470.194,2021-2-03T09:21:24Z
2021-02-03T07:23:25Z,42.805,6.029,13.2984,4.59989,2470.18,2021-2-03T09:24:28Z
2021-02-03T07:26:28Z,42.805,6.029,13.2986,4.59988,2470.171,2021-2-03T09:27:31Z
2021-02-03T07:29:31Z,42.805,6.029,13.2983,4.59989,2470.203,2021-2-03T09:30:34Z
2021-02-03T07:32:34Z,42.805,6.029,13.2984,4.59991,2470.217,2021-2-03T09:33:37Z
2021-02-03T07:35:37Z,42.805,6.029,13.2989,4.59990,2470.217,2021-2-03T09:36:40Z
2021-02-03T07:38:40Z,42.805,6.029,13.2986,4.59990,2470.18,2021-2-03T09:39:43Z
2021-02-03T07:41:43Z,42.805,6.029,13.2986,4.59988,2470.18,2021-2-03T09:42:46Z
2021-02-03T07:44:46Z,42.805,6.029,13.2986,4.59993,2470.18,2021-2-03T09:45:49Z
2021-02-03T07:47:50Z,42.805,6.029,13.2985,4.59989,2470.217,2021-2-03T09:48:53Z
2021-02-03T07:50:53Z,42.805,6.029,13.2982,4.59991,2470.18,2021-2-03T09:51:56Z
2021-02-03T07:53:56Z,42.805,6.029,13.2986,4.59990,2470.18,2021-2-03T09:54:59Z
2021-02-03T07:56:59Z,42.805,6.029,13.2983,4.59989,2470.227,2021-2-03T09:58:02Z
2021-02-03T08:00:02Z,42.805,6.029,13.2986,4.59988,2470.227,2021-2-03T10:01:05Z
2021-02-03T08:03:05Z,42.805,6.029,13.2991,4.59989,2470.194,2021-2-03T10:04:08Z
2021-02-03T08:06:08Z,42.805,6.029,13.2982,4.59991,2470.217,2021-2-03T10:07:11Z
2021-02-03T08:09:11Z,42.805,6.029,13.2986,4.59988,2470.227,2021-2-03T10:10:14Z
2021-02-03T08:12:15Z,42.805,6.029,13.2983,4.59990,2470.24,2021-2-03T10:13:17Z
2021-02-03T08:15:18Z,42.805,6.029,13.2986,4.59993,2470.25,2021-2-03T10:16:21Z
2021-02-03T08:18:21Z,42.805,6.029,13.2983,4.59987,2470.227,2021-2-03T10:19:24Z
2021-02-03T08:21:24Z,42.805,6.029,13.2981,4.59989,2470.25,2021-2-03T10:22:27Z
2021-02-03T08:24:27Z,42.805,6.029,13.2987,4.59991,2470.287,2021-2-03T10:25:30Z
2021-02-03T08:27:30Z,42.805,6.029,13.2986,4.59992,2470.227,2021-2-03T10:28:33Z
2021-02-03T08:30:33Z,42.805,6.029,13.2986,4.59989,2470.24,2021-2-03T10:31:36Z
2021-02-03T08:33:36Z,42.805,6.029,13.2983,4.59991,2470.25,2021-2-03T10:34:39Z
2021-02-03T08:36:40Z,42.805,6.029,13.2985,4.59989,2470.25,2021-2-03T10:37:42Z
2021-02-03T08:39:43Z,42.805,6.029,13.2983,4.59990,2470.264,2021-2-03T10:40:46Z
2021-02-03T08:42:46Z,42.805,6.029,13.2989,4.59990,2470.264,2021-2-03T10:43:49Z
2021-02-03T08:45:49Z,42.805,6.029,13.2986,4.59991,2470.273,2021-2-03T10:46:52Z
2021-02-03T08:48:52Z,42.805,6.029,13.2989,4.59991,2470.25,2021-2-03T10:49:55Z
2021-02-03T08:51:55Z,42.805,6.029,13.2983,4.59991,2470.273,2021-2-03T10:52:58Z
2021-02-03T08:54:58Z,42.805,6.029,13.2986,4.59993,2470.236,2021-2-03T10:56:01Z
2021-02-03T08:58:01Z,42.805,6.029,13.2986,4.59991,2470.25,2021-2-03T10:59:04Z
2021-02-03T09:01:05Z,42.805,6.029,13.2984,4.59991,2470.297,2021-2-03T11:02:08Z
2021-02-03T09:04:08Z,42.805,6.029,13.2985,4.59991,2470.273,2021-2-03T11:05:11Z
2021-02-03T09:07:12Z,42.805,6.029,13.2986,4.59990,2470.25,2021-2-03T11:08:14Z
2021-02-03T09:10:15Z,42.805,6.029,13.2982,4.59990,2470.273,2021-2-03T11:11:18Z
2021-02-03T09:13:18Z,42.805,6.029,13.2987,4.59992,2470.273,2021-2-03T11:14:21Z
2021-02-03T09:16:21Z,42.805,6.029,13.2986,4.59988,2470.297,2021-2-03T11:17:24Z
2021-02-03T09:19:24Z,42.805,6.029,13.2984,4.59991,2470.287,2021-2-03T11:20:27Z
2021-02-03T09:22:27Z,42.805,6.029,13.2981,4.59991,2470.273,2021-2-03T11:23:30Z
2021-02-03T09:25:30Z,42.805,6.029,13.2983,4.59992,2470.32,2021-2-03T11:26:33Z
2021-02-03T09:28:33Z,42.805,6.029,13.2982,4.59991,2470.31,2021-2-03T11:29:36Z
2021-02-03T09:31:36Z,42.805,6.029,13.2984,4.59991,2470.38,2021-2-03T11:32:39Z
2021-02-03T09:34:40Z,42.805,6.029,13.2983,4.59990,2470.31,2021-2-03T11:35:43Z
2021-02-03T09:37:43Z,42.805,6.029,13.2984,4.59992,2470.297,2021-2-03T11:38:46Z
2021-02-03T09:40:46Z,42.805,6.029,13.2986,4.59993,2470.32,2021-2-03T11:41:49Z
2021-02-03T09:43:49Z,42.805,6.029,13.2986,4.59993,2470.343,2021-2-03T11:44:52Z
2021-02-03T09:46:52Z,42.805,6.029,13.2985,4.59995,2470.357,2021-2-03T11:47:55Z
2021-02-03T09:49:55Z,42.805,6.029,13.2983,4.59992,2470.297,2021-2-03T11:50:58Z
2021-02-03T09:52:58Z,42.805,6.029,13.2982,4.59991,2470.31,2021-2-03T11:54:01Z
2021-02-03T09:56:01Z,42.805,6.029,13.2988,4.59994,2470.297,2021-2-03T11:57:04Z
2021-02-03T09:59:05Z,42.805,6.029,13.2986,4.59992,2470.31,2021-2-03T12:00:08Z
2021-02-03T10:02:08Z,42.805,6.029,13.2983,4.59993,2470.357,2021-2-03T12:03:11Z
2021-02-03T10:05:11Z,42.805,6.029,13.2985,4.59994,2470.343,2021-2-03T12:06:14Z
2021-02-03T10:08:14Z,42.805,6.029,13.2986,4.59991,2470.357,2021-2-03T12:09:17Z
2021-02-03T10:11:17Z,42.805,6.029,13.2983,4.59990,2470.32,2021-2-03T12:12:20Z
2021-02-03T10:14:20Z,42.805,6.029,13.2981,4.59992,2470.343,2021-2-03T12:15:23Z
2021-02-03T10:17:23Z,42.805,6.029,13.2982,4.59988,2470.334,2021-2-03T12:18:26Z
2021-02-03T10:20:26Z,42.805,6.029,13.2985,4.59990,2470.343,2021-2-03T12:21:29Z
2021-02-03T10:23:30Z,42.805,6.029,13.2987,4.59989,2470.366,2021-2-03T12:24:32Z
2021-02-03T10:26:33Z,42.805,6.029,13.2983,4.59990,2470.353,2021-2-03T12:27:36Z
2021-02-03T10:29:36Z,42.805,6.029,13.2986,4.59989,2470.32,2021-2-03T12:30:39Z
2021-02-03T10:32:39Z,42.805,6.029,13.2983,4.59990,2470.366,2021-2-03T12:33:42Z
2021-02-03T10:35:42Z,42.805,6.029,13.2981,4.59991,2470.343,2021-2-03T12:36:45Z
2021-02-03T10:38:45Z,42.805,6.029,13.2986,4.59989,2470.38,2021-2-03T12:39:48Z
2021-02-03T10:41:48Z,42.805,6.029,13.2986,4.59992,2470.366,2021-2-03T12:42:51Z
2021-02-03T10:44:51Z,42.805,6.029,13.2985,4.59992,2470.366,2021-2-03T12:45:54Z
2021-02-03T10:47:55Z,42.805,6.029,13.2986,4.59991,2470.38,2021-2-03T12:48:57Z
2021-02-03T10:50:58Z,42.805,6.029,13.2984,4.59991,2470.366,2021-2-03T12:52:01Z
2021-02-03T10:54:01Z,42.805,6.029,13.2985,4.59990,2470.32,2021-2-03T12:55:04Z
2021-02-03T10:57:04Z,42.805,6.029,13.2984,4.59990,2470.343,2021-2-03T12:58:07Z
2021-02-03T11:00:07Z,42.805,6.029,13.2985,4.59988,2470.306,2021-2-03T13:01:10Z
2021-02-03T11:03:10Z,42.805,6.029,13.2986,4.59990,2470.343,2021-2-03T13:04:13Z
2021-02-03T11:06:13Z,42.805,6.029,13.2981,4.59990,2470.343,2021-2-03T13:07:16Z
2021-02-03T11:09:16Z,42.805,6.029,13.2986,4.59989,2470.32,2021-2-03T13:10:19Z
2021-02-03T11:12:19Z,42.805,6.029,13.2986,4.59992,2470.32,2021-2-03T13:13:22Z
2021-02-03T11:15:23Z,42.805,6.029,13.2983,4.59989,2470.38,2021-2-03T13:16:26Z
2021-02-03T11:18:26Z,42.805,6.029,13.2988,4.59989,2470.38,2021-2-03T13:19:29Z
2021-02-03T11:21:29Z,42.805,6.029,13.2984,4.59989,2470.357,2021-2-03T13:22:32Z
2021-02-03T11:24:32Z,42.805,6.029,13.2983,4.59989,2470.366,2021-2-03T13:25:35Z
2021-02-03T11:27:35Z,42.805,6.029,13.2986,4.59989,2470.343,2021-2-03T13:28:38Z
2021-02-03T11:30:38Z,42.805,6.029,13.2983,4.59988,2470.357,2021-2-03T13:31:41Z
2021-02-03T11:33:41Z,42.805,6.029,13.2982,4.59989,2470.357,2021-2-03T13:34:44Z
2021-02-03T11:36:44Z,42.805,6.029,13.2985,4.59988,2470.343,2021-2-03T13:37:47Z
2021-02-03T11:39:48Z,42.805,6.029,13.2983,4.59989,2470.32,2021-2-03T13:40:51Z
2021-02-03T11:42:51Z,42.805,6.029,13.2988,4.59990,2470.32,2021-2-03T13:43:54Z
2021-02-03T11:45:54Z,42.805,6.029,13.2983,4.59988,2470.343,2021-2-03T13:46:57Z
2021-02-03T11:48:57Z,42.805,6.029,13.2983,4.59990,2470.343,2021-2-03T13:50:00Z
2021-02-03T11:52:00Z,42.805,6.029,13.2988,4.59991,2470.297,2021-2-03T13:53:03Z
2021-02-03T11:55:03Z,42.805,6.029,13.2983,4.59988,2470.32,2021-2-03T13:56:06Z
2021-02-03T11:58:06Z,42.805,6.029,13.2983,4.59990,2470.297,2021-2-03T13:59:09Z
2021-02-03T12:01:09Z,42.805,6.029,13.2982,4.59994,2470.357,2021-2-03T14:02:12Z
2021-02-03T12:04:13Z,42.805,6.029,13.2984,4.59991,2470.343,2021-2-03T14:05:16Z
2021-02-03T12:07:16Z,42.805,6.029,13.2988,4.59989,2470.297,2021-2-03T14:08:19Z
2021-02-03T12:10:19Z,42.805,6.029,13.2986,4.59989,2470.32,2021-2-03T14:11:22Z
2021-02-03T12:13:22Z,42.805,6.029,13.2983,4.59990,2470.31,2021-2-03T14:14:25Z
2021-02-03T12:16:25Z,42.805,6.029,13.2986,4.59990,2470.32,2021-2-03T14:17:28Z
2021-02-03T12:19:28Z,42.805,6.029,13.2984,4.59989,2470.357,2021-2-03T14:20:31Z
2021-02-03T12:22:31Z,42.805,6.029,13.2984,4.59991,2470.334,2021-2-03T14:23:34Z
2021-02-03T12:25:34Z,42.805,6.029,13.2982,4.59989,2470.297,2021-2-03T14:26:37Z
2021-02-03T12:28:38Z,42.805,6.029,13.2983,4.59988,2470.334,2021-2-03T14:29:41Z
2021-02-03T12:31:41Z,42.805,6.029,13.2985,4.59989,2470.31,2021-2-03T14:32:44Z
2021-02-03T12:34:44Z,42.805,6.029,13.2983,4.59989,2470.297,2021-2-03T14:35:47Z
2021-02-03T12:37:47Z,42.805,6.029,13.2986,4.59991,2470.297,2021-2-03T14:38:50Z
2021-02-03T12:40:50Z,42.805,6.029,13.2983,4.59991,2470.297,2021-2-03T14:41:53Z
2021-02-03T12:43:53Z,42.805,6.029,13.2987,4.59988,2470.334,2021-2-03T14:44:56Z
2021-02-03T12:46:56Z,42.805,6.029,13.2986,4.59989,2470.343,2021-2-03T14:47:59Z
2021-02-03T12:49:59Z,42.805,6.029,13.2986,4.59989,2470.31,2021-2-03T14:51:02Z
2021-02-03T12:53:03Z,42.805,6.029,13.2983,4.59989,2470.273,2021-2-03T14:54:05Z
2021-02-03T12:56:06Z,42.805,6.029,13.2983,4.59991,2470.297,2021-2-03T14:57:09Z
2021-02-03T12:59:09Z,42.805,6.029,13.2983,4.59989,2470.287,2021-2-03T15:00:12Z
2021-02-03T13:02:12Z,42.805,6.029,13.2984,4.59989,2470.31,2021-2-03T15:03:15Z
2021-02-03T13:05:15Z,42.805,6.029,13.2986,4.59989,2470.31,2021-2-03T15:06:18Z
2021-02-03T13:08:18Z,42.805,6.029,13.2986,4.59989,2470.297,2021-2-03T15:09:21Z
2021-02-03T13:11:21Z,42.805,6.029,13.2982,4.59988,2470.273,2021-2-03T15:12:24Z
2021-02-03T13:14:24Z,42.805,6.029,13.2985,4.59990,2470.287,2021-2-03T15:15:27Z
2021-02-03T13:17:28Z,42.805,6.029,13.2987,4.59993,2470.287,2021-2-03T15:18:30Z
2021-02-03T13:20:31Z,42.805,6.029,13.2983,4.59989,2470.264,2021-2-03T15:21:34Z
2021-02-03T13:23:34Z,42.805,6.029,13.2985,4.59987,2470.297,2021-2-03T15:24:37Z
2021-02-03T13:26:37Z,42.805,6.029,13.2985,4.59988,2470.31,2021-2-03T15:27:40Z
2021-02-03T13:29:40Z,42.805,6.029,13.2985,4.59990,2470.287,2021-2-03T15:30:43Z
2021-02-03T13:32:43Z,42.805,6.029,13.2983,4.59988,2470.273,2021-2-03T15:33:46Z
2021-02-03T13:35:46Z,42.805,6.029,13.2984,4.59989,2470.32,2021-2-03T15:36:49Z
2021-02-03T13:38:49Z,42.805,6.029,13.2985,4.59992,2470.297,2021-2-03T15:39:52Z
2021-02-03T13:41:53Z,42.805,6.029,13.2983,4.59988,2470.297,2021-2-03T15:42:55Z
2021-02-03T13:44:56Z,42.805,6.029,13.2986,4.59995,2470.287,2021-2-03T15:45:59Z
2021-02-03T13:47:59Z,42.805,6.029,13.2982,4.59989,2470.297,2021-2-03T15:49:02Z
2021-02-03T13:51:02Z,42.805,6.029,13.2984,4.59989,2470.31,2021-2-03T15:52:05Z
2021-02-03T13:54:05Z,42.805,6.029,13.2988,4.59992,2470.273,2021-2-03T15:55:08Z
2021-02-03T13:57:08Z,42.805,6.029,13.2982,4.59993,2470.287,2021-2-03T15:58:11Z
2021-02-03T14:00:11Z,42.805,6.029,13.2982,4.59988,2470.297,2021-2-03T16:01:14Z
2021-02-03T14:03:14Z,42.805,6.029,13.2983,4.59988,2470.25,2021-2-03T16:04:17Z
2021-02-03T14:06:17Z,42.805,6.029,13.2982,4.59991,2470.273,2021-2-03T16:07:20Z
2021-02-03T14:09:21Z,42.805,6.029,13.2991,4.59988,2470.273,2021-2-03T16:10:24Z
2021-02-03T14:12:24Z,42.805,6.029,13.2984,4.59997,2470.264,2021-2-03T16:13:27Z
2021-02-03T14:15:27Z,42.805,6.029,13.2986,4.59991,2470.264,2021-2-03T16:16:30Z
2021-02-03T14:18:30Z,42.805,6.029,13.2985,4.59991,2470.227,2021-2-03T16:19:33Z
2021-02-03T14:21:33Z,42.805,6.029,13.2983,4.59994,2470.287,2021-2-03T16:22:36Z
2021-02-03T14:24:36Z,42.805,6.029,13.2981,4.59989,2470.24,2021-2-03T16:25:39Z
2021-02-03T14:27:39Z,42.805,6.029,13.2985,4.59987,2470.273,2021-2-03T16:28:42Z
2021-02-03T14:30:42Z,42.805,6.029,13.2982,4.59987,2470.25,2021-2-03T16:31:45Z
2021-02-03T14:33:46Z,42.805,6.029,13.2983,4.59989,2470.25,2021-2-03T16:34:49Z
2021-02-03T14:36:49Z,42.805,6.029,13.2983,4.59988,2470.25,2021-2-03T16:37:52Z
2021-02-03T14:39:52Z,42.805,6.029,13.2987,4.59987,2470.25,2021-2-03T16:40:55Z
2021-02-03T14:42:55Z,42.805,6.029,13.2986,4.59988,2470.273,2021-2-03T16:43:58Z
2021-02-03T14:45:58Z,42.805,6.029,13.2983,4.59988,2470.25,2021-2-03T16:47:01Z
2021-02-03T14:49:01Z,42.805,6.029,13.2983,4.59993,2470.264,2021-2-03T16:50:04Z
2021-02-03T14:52:04Z,42.805,6.029,13.2985,4.59988,2470.264,2021-2-03T16:53:07Z
2021-02-03T14:55:07Z,42.805,6.029,13.2985,4.59990,2470.24,2021-2-03T16:56:10Z
2021-02-03T14:58:11Z,42.805,6.029,13.2983,4.59988,2470.24,2021-2-03T16:59:14Z
2021-02-03T15:01:14Z,42.805,6.029,13.2986,4.59990,2470.264,2021-2-03T17:02:17Z
2021-02-03T15:04:17Z,42.805,6.029,13.2982,4.59988,2470.25,2021-2-03T17:05:20Z
2021-02-03T15:07:20Z,42.805,6.029,13.2982,4.59989,2470.24,2021-2-03T17:08:23Z
2021-02-03T15:10:23Z,42.805,6.029,13.2986,4.59989,2470.203,2021-2-03T17:11:26Z
2021-02-03T15:13:26Z,42.805,6.029,13.2982,4.59988,2470.227,2021-2-03T17:14:29Z